FW1203 Weather Reports


Display with metric or nautical units.
time (UTC)temp
F
wind
direction
speed
MPH
gust
MPH
rain 1hr
in
rain 24hr
in
rain mn
in
humidity
%
barometer
mb
20260502163833 53 170 1.0 4.0 0.00 0.00 0.00 55 1019.3
20260502163333 53 167 1.0 4.0 0.00 0.00 0.00 55 1019.4
20260502162833 53 123 1.0 4.0 0.00 0.00 0.00 55 1019.4
20260502162333 53 150 1.0 5.0 0.00 0.00 0.00 50 1019.4
20260502161833 53 170 1.0 5.0 0.00 0.00 0.00 53 1019.4
20260502161333 53 173 0.0 5.0 0.00 0.00 0.00 55 1019.5
20260502160833 52 193 1.0 6.0 0.00 0.00 0.00 52 1019.5
20260502160333 52 184 0.0 7.0 0.00 0.00 0.00 54 1019.6
20260502152333 51 270 1.0 4.0 0.00 0.00 0.00 49 1019.6
20260502151833 51 44 0.0 1.0 0.00 0.00 0.00 51 1019.6
20260502151333 51 44 0.0 1.0 0.00 0.00 0.00 49 1019.6
20260502150833 51 44 0.0 1.0 0.00 0.00 0.00 52 1019.6
20260502150333 51 44 0.0 1.0 0.00 0.00 0.00 51 1019.6
20260502130333 39 258 0.0 1.0 0.00 0.00 0.00 93 1019.7
20260502123333 35 0 0.0 0.0 0.00 0.00 0.00 97 1019.6
20260502122833 35 0 0.0 0.0 0.00 0.00 0.00 96 1019.6
20260502122333 34 0 0.0 0.0 0.00 0.00 0.00 96 1019.6
20260502121833 33 0 0.0 0.0 0.00 0.00 0.00 96 1019.6
20260502121333 33 0 0.0 0.0 0.00 0.00 0.00 96 1019.6
20260502120833 32 0 0.0 0.0 0.00 0.00 0.00 95 1019.6
20260502120333 31 0 0.0 0.0 0.00 0.00 0.00 95 1019.5
20260502115833 31 0 0.0 0.0 0.00 0.00 0.00 94 1019.4
20260502115333 31 0 0.0 0.0 0.00 0.00 0.00 94 1019.4
20260502114833 31 0 0.0 0.0 0.00 0.00 0.00 94 1019.4
20260502113833 31 0 0.0 0.0 0.00 0.00 0.00 94 1019.3
20260502113333 31 0 0.0 0.0 0.00 0.00 0.00 94 1019.3
20260502112833 30 0 0.0 0.0 0.00 0.00 0.00 93 1019.2
20260502112333 30 0 0.0 0.0 0.00 0.00 0.00 93 1019.1
20260502111833 30 0 0.0 0.0 0.00 0.00 0.00 93 1019.2
20260502111333 30 0 0.0 0.0 0.00 0.00 0.00 93 1019.1
20260502110833 30 0 0.0 0.0 0.00 0.00 0.00 93 1019.0
20260502110333 30 0 0.0 0.0 0.00 0.00 0.00 93 1019.0
20260502105833 30 0 0.0 0.0 0.00 0.00 0.00 93 1019.0
20260502105333 30 0 0.0 0.0 0.00 0.00 0.00 93 1019.0
20260502104833 30 0 0.0 0.0 0.00 0.00 0.00 93 1019.0
20260502104333 30 0 0.0 0.0 0.00 0.00 0.00 93 1019.0
20260502103833 30 0 0.0 0.0 0.00 0.00 0.00 93 1019.0
20260502103333 30 0 0.0 0.0 0.00 0.00 0.00 93 1019.0
20260502102833 30 0 0.0 0.0 0.00 0.00 0.00 93 1019.0
20260502102333 30 0 0.0 0.0 0.00 0.00 0.00 93 1019.0
20260502101833 30 0 0.0 0.0 0.00 0.00 0.00 93 1019.0
20260502101333 30 0 0.0 0.0 0.00 0.00 0.00 93 1018.9
20260502100833 30 0 0.0 0.0 0.00 0.00 0.00 93 1019.0
20260502100333 30 0 0.0 0.0 0.00 0.00 0.00 93 1019.0
20260502091333 31 0 0.0 0.0 0.00 0.01 0.00 92 1019.0
20260502090833 31 0 0.0 0.0 0.00 0.01 0.00 92 1019.0
20260502090333 31 0 0.0 0.0 0.00 0.01 0.00 92 1018.9
20260502071333 32 0 0.0 0.0 0.00 0.01 0.00 91 1019.0
20260502070833 32 0 0.0 0.0 0.00 0.01 0.00 91 1019.0
20260502070333 32 0 0.0 0.0 0.00 0.01 0.00 90 1019.1
20260502065833 32 0 0.0 0.0 0.00 0.01 0.00 91 1019.0
20260502065333 32 0 0.0 0.0 0.00 0.01 0.00 90 1019.1
20260502064833 32 0 0.0 0.0 0.00 0.01 0.00 90 1019.1
20260502064333 32 0 0.0 0.0 0.00 0.01 0.00 90 1019.1
20260502063833 32 0 0.0 0.0 0.00 0.01 0.00 90 1019.1
20260502063333 32 0 0.0 0.0 0.00 0.02 0.00 90 1019.3
20260502062833 32 0 0.0 0.0 0.00 0.02 0.00 90 1019.3
20260502062333 32 0 0.0 0.0 0.00 0.02 0.00 89 1019.3
20260502061833 32 0 0.0 0.0 0.00 0.02 0.00 89 1019.3
20260502061333 32 0 0.0 0.0 0.00 0.02 0.00 89 1019.3
20260502060833 33 0 0.0 0.0 0.00 0.02 0.00 89 1019.4
20260502060333 33 0 0.0 0.0 0.00 0.02 0.00 89 1019.4
20260502055833 33 0 0.0 0.0 0.00 0.02 0.00 89 1019.3
20260502055333 33 0 0.0 0.0 0.00 0.02 0.00 89 1019.3
20260502054833 33 0 0.0 0.0 0.00 0.02 0.00 88 1019.4
20260502054333 33 0 0.0 0.0 0.00 0.02 0.00 88 1019.4
20260502053833 33 0 0.0 0.0 0.00 0.02 0.00 88 1019.4
20260502053333 33 0 0.0 0.0 0.00 0.03 0.00 87 1019.4
20260502052833 33 0 0.0 0.0 0.00 0.03 0.00 87 1019.4
20260502052333 33 0 0.0 0.0 0.00 0.03 0.00 87 1019.4
20260502051833 33 0 0.0 0.0 0.00 0.03 0.00 87 1019.4
20260502051333 33 0 0.0 0.0 0.00 0.03 0.00 87 1019.3
20260502050833 33 0 0.0 0.0 0.00 0.04 0.00 86 1019.3
20260502050333 34 0 0.0 0.0 0.00 0.04 0.00 86 1019.3
20260502045833 34 0 0.0 0.0 0.00 0.04 0.00 86 1019.3
20260502045333 34 0 0.0 0.0 0.00 0.04 0.00 86 1019.3
20260502044833 34 0 0.0 0.0 0.00 0.04 0.00 85 1019.3
20260502044333 34 0 0.0 0.0 0.00 0.04 0.00 85 1019.2
20260502043833 34 0 0.0 0.0 0.00 0.04 0.00 84 1019.3
20260502043333 34 0 0.0 0.0 0.00 0.04 0.00 84 1019.3
20260502042833 34 0 0.0 0.0 0.00 0.04 0.00 84 1019.2
20260502042333 35 0 0.0 0.0 0.00 0.04 0.00 84 1019.1
20260502041833 35 0 0.0 0.0 0.00 0.04 0.00 83 1019.1
20260502041333 35 0 0.0 0.0 0.00 0.04 0.00 83 1019.1
20260502040833 35 0 0.0 0.0 0.00 0.04 0.00 82 1019.1
20260502040333 35 0 0.0 0.0 0.00 0.04 0.00 82 1019.1
20260502035833 36 0 0.0 0.0 0.00 0.04 0.00 81 1019.1
20260502035333 36 0 0.0 0.0 0.00 0.04 0.00 81 1019.1
20260502034833 36 0 0.0 0.0 0.00 0.05 0.00 80 1019.0
20260502034333 36 0 0.0 0.0 0.00 0.05 0.00 80 1019.0
20260502033833 36 0 0.0 0.0 0.00 0.05 0.00 79 1019.0
20260502033333 37 0 0.0 0.0 0.00 0.05 0.00 78 1018.9
20260502032833 37 0 0.0 0.0 0.00 0.05 0.00 78 1018.9
20260502032333 37 0 0.0 0.0 0.00 0.05 0.00 78 1018.9
20260502031833 37 0 0.0 0.0 0.00 0.05 0.00 77 1018.9
20260502030833 38 0 0.0 0.0 0.00 0.06 0.00 76 1018.9
20260502030333 38 0 0.0 0.0 0.00 0.06 0.00 76 1018.9
20260502025833 38 0 0.0 0.0 0.00 0.06 0.00 74 1018.9
20260502025333 38 0 0.0 0.0 0.00 0.06 0.00 74 1018.8
20260502024833 38 0 0.0 0.0 0.00 0.06 0.00 73 1018.7
20260502024333 38 0 0.0 0.0 0.00 0.06 0.00 73 1018.8
20260502023833 39 0 0.0 0.0 0.00 0.06 0.00 72 1018.8
20260502023333 39 0 0.0 0.0 0.00 0.06 0.00 72 1018.8
20260502022833 39 0 0.0 0.0 0.00 0.06 0.00 72 1018.7
20260502022333 39 0 0.0 0.0 0.00 0.06 0.00 72 1018.7
20260502021833 39 0 0.0 0.0 0.00 0.06 0.00 71 1018.7
20260502021333 39 0 0.0 0.0 0.00 0.06 0.00 71 1018.6
20260502020833 40 0 0.0 0.0 0.00 0.06 0.06 71 1018.5
20260502020333 40 0 0.0 0.0 0.00 0.06 0.06 70 1018.5
20260502015833 40 0 0.0 0.0 0.00 0.06 0.06 69 1018.5
20260502015333 40 0 0.0 0.0 0.00 0.06 0.06 70 1018.4
20260502014833 40 0 0.0 0.0 0.00 0.06 0.06 69 1018.4
20260502014333 40 0 0.0 0.0 0.00 0.06 0.06 69 1018.4
20260502013833 40 0 0.0 0.0 0.00 0.06 0.06 68 1018.4
20260502013333 41 259 0.0 2.0 0.00 0.06 0.06 68 1018.4
20260502012833 41 259 0.0 2.0 0.00 0.06 0.06 68 1018.3
20260502012333 41 360 0.0 1.0 0.00 0.06 0.06 68 1018.3
20260502011833 41 0 0.0 0.0 0.00 0.06 0.06 68 1018.3
20260502011333 41 265 0.0 3.0 0.00 0.06 0.06 68 1018.2
20260502010833 41 265 0.0 3.0 0.00 0.06 0.06 68 1018.2
20260502010333 41 209 0.0 1.0 0.00 0.06 0.06 69 1018.2
20260502005833 41 0 0.0 0.0 0.00 0.06 0.06 67 1018.2
20260502005333 41 280 0.0 2.0 0.00 0.06 0.06 68 1018.2
20260502004833 42 280 0.0 2.0 0.00 0.06 0.06 70 1018.3
20260502004333 42 319 0.0 2.0 0.00 0.06 0.06 69 1018.2
20260502003833 42 319 0.0 2.0 0.00 0.06 0.06 69 1018.1
20260502003333 42 272 0.0 4.0 0.00 0.06 0.06 68 1018.2
20260502002833 42 272 0.0 4.0 0.00 0.06 0.06 68 1018.1
20260502002333 42 200 0.0 2.0 0.00 0.06 0.06 69 1018.1
20260502001833 42 227 0.0 3.0 0.00 0.06 0.06 70 1018.1
20260502001333 42 239 0.0 3.0 0.00 0.06 0.06 69 1018.1
20260502000833 42 223 0.0 1.0 0.00 0.06 0.06 70 1018.0
20260502000333 42 223 0.0 1.0 0.00 0.06 0.06 70 1018.0
20260501235833 42 219 0.0 1.0 0.00 0.06 0.06 70 1017.9
20260501235333 42 236 0.0 3.0 0.00 0.06 0.06 69 1018.0
20260501234833 42 236 0.0 3.0 0.00 0.06 0.06 69 1018.0
20260501234333 43 252 0.0 1.0 0.00 0.06 0.06 69 1018.0
20260501233833 43 0 0.0 0.0 0.00 0.06 0.06 70 1018.0
20260501233333 43 223 0.0 2.0 0.00 0.06 0.06 70 1017.9
20260501232833 43 223 0.0 2.0 0.00 0.06 0.06 70 1017.9
20260501232333 43 215 0.0 2.0 0.00 0.06 0.06 69 1017.9
20260501231833 43 182 0.0 2.0 0.00 0.06 0.06 69 1017.8
20260501231333 43 170 0.0 2.0 0.00 0.06 0.06 70 1017.8
20260501230833 43 209 0.0 2.0 0.00 0.06 0.06 71 1017.9
20260501230333 43 196 0.0 3.0 0.00 0.06 0.06 71 1017.9
20260501225833 43 248 0.0 6.0 0.00 0.06 0.06 72 1017.8
20260501225333 43 267 1.0 6.0 0.00 0.06 0.06 72 1017.9
20260501224833 43 198 0.0 3.0 0.00 0.06 0.06 73 1017.8
20260501224333 43 208 0.0 2.0 0.00 0.06 0.06 74 1017.9
20260501223833 43 208 0.0 4.0 0.00 0.06 0.06 73 1017.8
20260501223333 43 277 1.0 4.0 0.00 0.06 0.06 73 1017.8
20260501222833 43 212 0.0 2.0 0.00 0.06 0.06 74 1017.9
20260501222333 43 212 0.0 6.0 0.00 0.06 0.06 74 1017.9
20260501221833 44 140 0.0 6.0 0.00 0.06 0.06 74 1017.8
20260501221333 44 182 0.0 2.0 0.00 0.06 0.06 75 1017.8
20260501220833 44 174 0.0 2.0 0.00 0.06 0.06 74 1017.8
20260501220333 44 224 0.0 2.0 0.00 0.06 0.06 75 1017.8
20260501215833 44 157 0.0 2.0 0.00 0.06 0.06 75 1017.8
20260501215333 44 168 0.0 2.0 0.00 0.06 0.06 74 1017.7
20260501214833 44 216 0.0 2.0 0.00 0.06 0.06 74 1017.7
20260501214333 44 301 0.0 3.0 0.00 0.06 0.06 74 1017.7
20260501213833 44 203 0.0 3.0 0.00 0.06 0.06 74 1017.6
20260501213333 45 173 0.0 3.0 0.00 0.06 0.06 75 1017.7
20260501212833 45 240 0.0 3.0 0.00 0.06 0.06 75 1017.6
20260501212333 45 205 1.0 3.0 0.00 0.06 0.06 75 1017.6
20260501211833 45 221 0.0 4.0 0.00 0.06 0.06 76 1017.6
20260501211333 45 166 1.0 6.0 0.00 0.06 0.06 75 1017.6
20260501210833 45 243 1.0 6.0 0.00 0.06 0.06 76 1017.6
20260501210333 45 222 0.0 1.0 0.00 0.06 0.06 77 1017.5
20260501205833 45 222 0.0 4.0 0.00 0.06 0.06 77 1017.6
20260501205333 45 249 1.0 4.0 0.00 0.06 0.06 76 1017.6
20260501204833 45 157 1.0 4.0 0.00 0.06 0.06 76 1017.5
20260501204333 45 0 0.0 0.0 0.00 0.06 0.06 76 1017.5
20260501203833 45 201 0.0 1.0 0.00 0.06 0.06 76 1017.4
20260501203333 45 201 0.0 1.0 0.00 0.06 0.06 77 1017.4
20260501202833 45 230 0.0 1.0 0.00 0.06 0.06 77 1017.5
20260501202333 45 176 0.0 3.0 0.00 0.06 0.06 77 1017.5
20260501201833 45 176 0.0 3.0 0.00 0.06 0.06 78 1017.4
20260501201333 45 258 0.0 3.0 0.00 0.06 0.06 78 1017.5
20260501200833 45 182 0.0 5.0 0.00 0.06 0.06 79 1017.5
20260501200333 45 169 1.0 5.0 0.00 0.06 0.06 79 1017.6
20260501195833 45 273 1.0 5.0 0.00 0.06 0.06 79 1017.6
20260501195333 44 185 0.0 4.0 0.00 0.06 0.06 79 1017.5
20260501194833 44 236 0.0 4.0 0.00 0.06 0.06 79 1017.5
20260501194333 45 268 0.0 4.0 0.00 0.06 0.06 79 1017.5
20260501193833 45 152 1.0 4.0 0.00 0.06 0.06 78 1017.5
20260501193333 45 254 0.0 3.0 0.00 0.06 0.06 80 1017.6
20260501192833 45 257 0.0 6.0 0.00 0.06 0.06 79 1017.4
20260501192333 45 242 0.0 6.0 0.00 0.06 0.06 80 1017.3
20260501191833 45 154 0.0 6.0 0.00 0.06 0.06 81 1017.3
20260501191333 44 245 1.0 6.0 0.00 0.06 0.06 81 1017.3
20260501190833 45 245 0.0 4.0 0.00 0.06 0.06 80 1017.3
20260501190333 45 116 0.0 4.0 0.00 0.06 0.06 80 1017.3
20260501185833 45 170 0.0 3.0 0.00 0.06 0.06 79 1017.2
20260501185333 45 170 1.0 5.0 0.00 0.06 0.06 79 1017.2
20260501184832 45 173 1.0 5.0 0.00 0.06 0.06 78 1017.1
20260501184333 45 226 0.0 4.0 0.00 0.06 0.06 79 1017.1
20260501183833 45 222 0.0 4.0 0.00 0.06 0.06 78 1017.0
20260501183333 45 171 1.0 4.0 0.00 0.06 0.06 79 1016.9
20260501182333 45 205 0.0 4.0 0.00 0.06 0.06 77 1016.9
20260501181833 46 256 0.0 4.0 0.00 0.06 0.06 76 1016.9
20260501181333 46 269 0.0 4.0 0.00 0.06 0.06 76 1016.9
20260501180833 45 261 0.0 4.0 0.00 0.06 0.06 75 1016.8
20260501180333 45 192 0.0 2.0 0.00 0.06 0.06 76 1016.8
20260501175833 45 168 0.0 4.0 0.00 0.06 0.06 76 1016.8
20260501175333 45 275 1.0 4.0 0.00 0.06 0.06 75 1016.9
20260501174833 45 230 0.0 4.0 0.00 0.06 0.06 76 1016.8
20260501174333 46 144 0.0 2.0 0.00 0.06 0.06 76 1016.8
20260501173833 46 113 0.0 2.0 0.00 0.06 0.06 74 1016.7
20260501173333 46 186 0.0 3.0 0.00 0.06 0.06 75 1016.6
20260501172833 46 262 0.0 4.0 0.00 0.06 0.06 78 1016.5
20260501172333 45 303 0.0 4.0 0.00 0.06 0.06 79 1016.5
20260501171833 45 211 0.0 4.0 0.00 0.06 0.06 77 1016.5
20260501171333 45 264 0.0 4.0 0.00 0.06 0.06 79 1016.6
20260501170833 45 151 0.0 3.0 0.00 0.06 0.06 79 1016.6
20260501170333 45 237 0.0 3.0 0.00 0.06 0.06 78 1016.5
20260501165833 45 182 0.0 1.0 0.00 0.06 0.06 77 1016.5
20260501165333 46 182 0.0 2.0 0.00 0.06 0.06 76 1016.5
20260501164833 47 222 0.0 4.0 0.00 0.06 0.06 76 1016.5
20260501164333 47 272 0.0 4.0 0.00 0.06 0.06 77 1016.4